Location: Milton
(43.5183°N, 79.8775°W)
Time: 14:27:27
(UTC+00:00)

NOAA 15 - Visible Passes

Search period start: 01 April 2023 00:00
Search period end: 11 April 2023 00:00
Orbit: 796 x 812 km, 98.6° (Epoch: 01 April)

Date Brightness Start Highest point End Pass type
(mag) Time Alt. Az. Time Alt. Az. Time Alt. Az.
01 Apr 7.3 01:36:17 10° SW 01:39:35 17° W 01:42:56 10° NW visible
02 Apr 6.7 01:09:26 10° SSW 01:13:56 28° W 01:18:27 10° NW visible
03 Apr 5.7 00:43:17 10° S 00:48:22 46° W 00:53:28 10° NNW visible
04 Apr 4.8 00:17:35 10° S 00:22:53 79° WSW 00:28:12 10° NNW visible
05 Apr 7.3 01:34:15 10° SW 01:37:42 17° W 01:41:09 10° NW visible
06 Apr 6.6 01:07:28 10° SSW 01:12:02 29° W 01:16:36 10° NW visible
07 Apr 5.7 00:41:21 10° S 00:46:28 48° W 00:51:35 10° NNW visible
08 Apr 4.8 00:15:42 10° SSE 00:20:59 81° WSW 00:26:18 10° NNW visible
09 Apr 7.3 01:32:14 10° SW 01:35:46 18° W 01:39:19 10° NW visible
10 Apr 6.5 01:05:31 10° SSW 01:10:07 30° W 01:14:44 10° NW visible
